GXA2287 KLBB-KCRP

Flight info

Callsign GXA2287
Flight time 1h 8m
Altitude 25000
Route SLENA V163 CRP
Aircraft A321/M-VGDW/C

Departure

Time 2026-04-14 22:35
Airport Lubbock Preston Smith International Airport (KLBB)

Arrival

Time 2026-04-14 23:44
Airport Corpus Christi International Airport (KCRP)
Time Latitude Longitude Altitude Speed Heading
2026-04-14 22:12 33.67346 -101.83303 3279 ft 0 kts 90°
2026-04-14 22:23 33.67346 -101.83305 3279 ft 1 kts 90°
2026-04-14 22:23 33.67347 -101.83321 3275 ft 3 kts 126°
2026-04-14 22:23 33.67357 -101.83329 3275 ft 3 kts 179°
2026-04-14 22:24 33.67375 -101.83329 3278 ft 2 kts 180°
2026-04-14 22:24 33.67378 -101.83329 3274 ft 1 kts 179°
2026-04-14 22:27 33.67377 -101.83329 3274 ft 1 kts 179°
2026-04-14 22:27 33.67358 -101.83324 3276 ft 5 kts 161°
2026-04-14 22:27 33.67312 -101.83299 3276 ft 9 kts 155°
2026-04-14 22:27 33.67241 -101.83274 3277 ft 12 kts 172°
2026-04-14 22:28 33.67148 -101.83271 3276 ft 15 kts 179°
2026-04-14 22:28 33.67084 -101.83190 3276 ft 17 kts 92°
2026-04-14 22:28 33.67025 -101.83122 3275 ft 13 kts 178°
2026-04-14 22:28 33.66933 -101.83125 3277 ft 14 kts 180°
2026-04-14 22:29 33.66823 -101.83125 3275 ft 18 kts 179°
2026-04-14 22:29 33.66688 -101.83123 3271 ft 21 kts 179°
2026-04-14 22:29 33.66541 -101.83121 3271 ft 22 kts 180°
2026-04-14 22:29 33.66380 -101.83121 3265 ft 25 kts 180°
2026-04-14 22:30 33.66200 -101.83121 3264 ft 26 kts 180°
2026-04-14 22:30 33.66037 -101.83093 3262 ft 21 kts 128°
2026-04-14 22:30 33.66029 -101.82901 3259 ft 25 kts 90°
2026-04-14 22:30 33.66031 -101.82682 3261 ft 27 kts 89°
2026-04-14 22:31 33.66034 -101.82456 3265 ft 27 kts 91°
2026-04-14 22:31 33.66033 -101.82225 3269 ft 28 kts 90°
2026-04-14 22:31 33.66035 -101.81987 3269 ft 29 kts 89°
2026-04-14 22:31 33.66035 -101.81731 3267 ft 32 kts 90°
2026-04-14 22:32 33.66036 -101.81480 3264 ft 28 kts 89°
2026-04-14 22:32 33.66036 -101.81230 3262 ft 32 kts 89°
2026-04-14 22:32 33.66039 -101.80972 3260 ft 29 kts 90°
2026-04-14 22:32 33.66039 -101.80725 3262 ft 30 kts 89°
2026-04-14 22:33 33.66042 -101.80479 3265 ft 30 kts 90°
2026-04-14 22:33 33.66042 -101.80228 3268 ft 31 kts 89°
2026-04-14 22:33 33.66044 -101.79973 3267 ft 31 kts 90°
2026-04-14 22:33 33.66044 -101.79741 3264 ft 18 kts 84°
2026-04-14 22:34 33.66143 -101.79681 3264 ft 18 kts
2026-04-14 22:34 33.66237 -101.79688 3263 ft 10 kts 327°
2026-04-14 22:34 33.66238 -101.79735 3261 ft 6 kts 264°
2026-04-14 22:34 33.66234 -101.79976 3266 ft 68 kts 269°
2026-04-14 22:35 33.66229 -101.80861 3265 ft 141 kts 270°
2026-04-14 22:35 33.66239 -101.82146 3822 ft 160 kts 267°
2026-04-14 22:35 33.66238 -101.83527 4556 ft 170 kts 265°
2026-04-14 22:35 33.66254 -101.84958 5412 ft 171 kts 265°
2026-04-14 22:36 33.66278 -101.86460 5848 ft 191 kts 265°
2026-04-14 22:36 33.66227 -101.88147 6211 ft 212 kts 253°
2026-04-14 22:36 33.65493 -101.89743 6578 ft 233 kts 223°
2026-04-14 22:36 33.63950 -101.90552 7057 ft 258 kts 188°
2026-04-14 22:37 33.62168 -101.90104 7779 ft 277 kts 162°
2026-04-14 22:37 33.60428 -101.88976 8657 ft 284 kts 153°
2026-04-14 22:37 33.58772 -101.87638 9557 ft 290 kts 150°
2026-04-14 22:37 33.57147 -101.86243 10390 ft 294 kts 150°
2026-04-14 22:38 33.55471 -101.84810 11229 ft 297 kts 150°
2026-04-14 22:38 33.53765 -101.83392 12068 ft 300 kts 152°
2026-04-14 22:38 33.52021 -101.81988 12930 ft 304 kts 152°
2026-04-14 22:38 33.50244 -101.80585 13776 ft 307 kts 153°
2026-04-14 22:39 33.48443 -101.79182 14528 ft 310 kts 153°
2026-04-14 22:39 33.46618 -101.77771 15265 ft 315 kts 153°
2026-04-14 22:39 33.44767 -101.76342 16000 ft 319 kts 153°
2026-04-14 22:39 33.42889 -101.74889 16726 ft 323 kts 153°
2026-04-14 22:40 33.40990 -101.73420 17472 ft 328 kts 154°
2026-04-14 22:40 33.39062 -101.71931 18204 ft 332 kts 154°
2026-04-14 22:40 33.37112 -101.70422 18840 ft 336 kts 154°
2026-04-14 22:40 33.35142 -101.68899 19483 ft 339 kts 154°
2026-04-14 22:41 33.33156 -101.67366 20136 ft 341 kts 154°
2026-04-14 22:41 33.31151 -101.65819 20783 ft 344 kts 155°
2026-04-14 22:41 33.29129 -101.64260 21440 ft 347 kts 155°
2026-04-14 22:41 33.27088 -101.62684 22082 ft 351 kts 155°
2026-04-14 22:42 33.25029 -101.61095 22722 ft 354 kts 155°
2026-04-14 22:42 33.22948 -101.59493 23330 ft 358 kts 155°
2026-04-14 22:42 33.20846 -101.57878 23854 ft 361 kts 155°
2026-04-14 22:42 33.18727 -101.56249 24371 ft 364 kts 155°
2026-04-14 22:43 33.16577 -101.54600 24712 ft 372 kts 155°
2026-04-14 22:43 33.14352 -101.52902 24806 ft 388 kts 155°
2026-04-14 22:43 33.12029 -101.51135 24828 ft 405 kts 155°
2026-04-14 22:43 33.09602 -101.49288 24830 ft 422 kts 155°
2026-04-14 22:44 33.07087 -101.47369 24828 ft 437 kts 154°
2026-04-14 22:44 33.04488 -101.45379 24832 ft 451 kts 154°
2026-04-14 22:44 33.01825 -101.43332 24831 ft 458 kts 154°
2026-04-14 22:44 32.99142 -101.41256 24832 ft 461 kts 154°
2026-04-14 22:45 32.96455 -101.39177 24832 ft 461 kts 154°
2026-04-14 22:45 32.93759 -101.37100 24828 ft 461 kts 154°
2026-04-14 22:45 32.91059 -101.35031 24831 ft 461 kts 154°
2026-04-14 22:45 32.88360 -101.32970 24829 ft 461 kts 154°
2026-04-14 22:46 32.85656 -101.30910 24838 ft 461 kts 154°
2026-04-14 22:46 32.82954 -101.28852 24850 ft 462 kts 154°
2026-04-14 22:46 32.80281 -101.26818 24858 ft 462 kts 154°
2026-04-14 22:46 32.77574 -101.24762 24859 ft 462 kts 154°
2026-04-14 22:47 32.74865 -101.22707 24863 ft 462 kts 154°
2026-04-14 22:47 32.72163 -101.20657 24866 ft 461 kts 154°
2026-04-14 22:47 32.69461 -101.18607 24869 ft 461 kts 154°
2026-04-14 22:47 32.66756 -101.16553 24872 ft 461 kts 154°
2026-04-14 22:48 32.64055 -101.14501 24874 ft 461 kts 154°
2026-04-14 22:48 32.61344 -101.12447 24874 ft 461 kts 154°
2026-04-14 22:48 32.58641 -101.10403 24870 ft 462 kts 154°
2026-04-14 22:48 32.55929 -101.08355 24869 ft 462 kts 154°
2026-04-14 22:49 32.53217 -101.06306 24867 ft 462 kts 154°
2026-04-14 22:49 32.50511 -101.04261 24863 ft 462 kts 154°
2026-04-14 22:49 32.47796 -101.02207 24855 ft 463 kts 154°
2026-04-14 22:49 32.45084 -101.00158 24851 ft 463 kts 154°
2026-04-14 22:50 32.42365 -100.98108 24844 ft 464 kts 154°
2026-04-14 22:50 32.39642 -100.96059 24833 ft 464 kts 154°
2026-04-14 22:50 32.36918 -100.94012 24825 ft 464 kts 154°
2026-04-14 22:50 32.34192 -100.91966 24825 ft 464 kts 154°
2026-04-14 22:51 32.31467 -100.89917 24821 ft 464 kts 154°
2026-04-14 22:51 32.28749 -100.87874 24818 ft 464 kts 153°
2026-04-14 22:51 32.26025 -100.85831 24817 ft 463 kts 153°
2026-04-14 22:51 32.23301 -100.83791 24816 ft 463 kts 153°
2026-04-14 22:52 32.20579 -100.81752 24836 ft 463 kts 153°
2026-04-14 22:52 32.17854 -100.79712 24838 ft 464 kts 153°
2026-04-14 22:52 32.15130 -100.77675 24839 ft 464 kts 153°
2026-04-14 22:52 32.12401 -100.75633 24843 ft 464 kts 153°
2026-04-14 22:53 32.09677 -100.73597 24845 ft 464 kts 153°
2026-04-14 22:53 32.06951 -100.71563 24846 ft 464 kts 153°
2026-04-14 22:53 32.04226 -100.69534 24850 ft 464 kts 153°
2026-04-14 22:53 32.01502 -100.67502 24853 ft 464 kts 153°
2026-04-14 22:54 31.98777 -100.65468 24855 ft 464 kts 153°
2026-04-14 22:54 31.96056 -100.63437 24860 ft 464 kts 153°
2026-04-14 22:54 31.93329 -100.61403 24859 ft 464 kts 153°
2026-04-14 22:54 31.90603 -100.59375 24864 ft 464 kts 153°
2026-04-14 22:55 31.87875 -100.57349 24865 ft 464 kts 153°
2026-04-14 22:55 31.85146 -100.55322 24869 ft 464 kts 153°
2026-04-14 22:55 31.82416 -100.53298 24871 ft 464 kts 153°
2026-04-14 22:55 31.79684 -100.51276 24874 ft 464 kts 153°
2026-04-14 22:56 31.76945 -100.49249 24873 ft 464 kts 153°
2026-04-14 22:56 31.74303 -100.47291 24878 ft 465 kts 153°
2026-04-14 22:56 31.71478 -100.45201 24879 ft 465 kts 153°
2026-04-14 22:56 31.68739 -100.43178 24891 ft 465 kts 153°
2026-04-14 22:57 31.66000 -100.41153 24903 ft 465 kts 153°
2026-04-14 22:57 31.63260 -100.39127 24910 ft 466 kts 153°
2026-04-14 22:57 31.60517 -100.37104 24913 ft 466 kts 153°
2026-04-14 22:57 31.57810 -100.35108 24916 ft 466 kts 153°
2026-04-14 22:58 31.55063 -100.33086 24924 ft 466 kts 153°
2026-04-14 22:58 31.52318 -100.31065 24927 ft 466 kts 153°
2026-04-14 22:58 31.49568 -100.29042 24931 ft 466 kts 153°
2026-04-14 22:58 31.46820 -100.27023 24930 ft 466 kts 153°
2026-04-14 22:59 31.44069 -100.25003 24929 ft 467 kts 153°
2026-04-14 22:59 31.41320 -100.22984 24925 ft 467 kts 153°
2026-04-14 22:59 31.38565 -100.20965 24921 ft 467 kts 153°
2026-04-14 22:59 31.35814 -100.18949 24920 ft 467 kts 153°
2026-04-14 23:00 31.33057 -100.16928 24917 ft 467 kts 153°
2026-04-14 23:00 31.30299 -100.14907 24909 ft 467 kts 153°
2026-04-14 23:00 31.27548 -100.12891 24904 ft 467 kts 153°
2026-04-14 23:00 31.24800 -100.10880 24901 ft 467 kts 153°
2026-04-14 23:01 31.22038 -100.08864 24899 ft 467 kts 153°
2026-04-14 23:01 31.19288 -100.06857 24914 ft 467 kts 153°
2026-04-14 23:01 31.16529 -100.04846 24929 ft 468 kts 153°
2026-04-14 23:01 31.13766 -100.02836 24925 ft 468 kts 153°
2026-04-14 23:02 31.11003 -100.00827 24924 ft 468 kts 153°
2026-04-14 23:02 31.08238 -99.98816 24925 ft 468 kts 153°
2026-04-14 23:02 31.05478 -99.96809 24923 ft 467 kts 153°
2026-04-14 23:02 31.02753 -99.94826 24926 ft 467 kts 153°
2026-04-14 23:03 30.99994 -99.92820 24927 ft 467 kts 153°
2026-04-14 23:03 30.97234 -99.90818 24918 ft 467 kts 153°
2026-04-14 23:03 30.94478 -99.88819 24917 ft 467 kts 153°
2026-04-14 23:03 30.91726 -99.86820 24916 ft 466 kts 153°
2026-04-14 23:04 30.88974 -99.84821 24910 ft 466 kts 153°
2026-04-14 23:04 30.86220 -99.82824 24914 ft 465 kts 153°
2026-04-14 23:04 30.83472 -99.80838 24917 ft 465 kts 153°
2026-04-14 23:04 30.80725 -99.78857 24923 ft 465 kts 153°
2026-04-14 23:05 30.77975 -99.76878 24928 ft 464 kts 153°
2026-04-14 23:05 30.75226 -99.74898 24940 ft 464 kts 153°
2026-04-14 23:05 30.72482 -99.72922 24945 ft 464 kts 153°
2026-04-14 23:05 30.69740 -99.70946 24951 ft 464 kts 153°
2026-04-14 23:06 30.66997 -99.68967 24957 ft 464 kts 153°
2026-04-14 23:06 30.64258 -99.66991 24961 ft 464 kts 153°
2026-04-14 23:06 30.61519 -99.65013 24966 ft 463 kts 153°
2026-04-14 23:06 30.58789 -99.63042 24996 ft 457 kts 155°
2026-04-14 23:07 30.56112 -99.61106 24994 ft 452 kts 155°
2026-04-14 23:07 30.53447 -99.59187 24994 ft 450 kts 155°
2026-04-14 23:07 30.50790 -99.57286 24990 ft 448 kts 155°
2026-04-14 23:07 30.48125 -99.55385 24986 ft 448 kts 155°
2026-04-14 23:08 30.45472 -99.53489 24980 ft 449 kts 155°
2026-04-14 23:08 30.42808 -99.51584 24973 ft 449 kts 155°
2026-04-14 23:08 30.40188 -99.49708 24968 ft 449 kts 155°
2026-04-14 23:08 30.37529 -99.47805 24960 ft 449 kts 155°
2026-04-14 23:09 30.34869 -99.45904 24951 ft 449 kts 155°
2026-04-14 23:09 30.32217 -99.44007 24939 ft 448 kts 155°
2026-04-14 23:09 30.29560 -99.42109 24930 ft 448 kts 155°
2026-04-14 23:09 30.26909 -99.40218 24933 ft 448 kts 155°
2026-04-14 23:10 30.25115 -99.38942 24925 ft 448 kts 155°
2026-04-14 23:10 30.22498 -99.37082 24928 ft 448 kts 155°
2026-04-14 23:10 30.19848 -99.35197 24934 ft 448 kts 155°
2026-04-14 23:10 30.17192 -99.33309 24940 ft 448 kts 155°
2026-04-14 23:11 30.14537 -99.31422 24946 ft 448 kts 155°
2026-04-14 23:11 30.11884 -99.29533 24952 ft 448 kts 155°
2026-04-14 23:11 30.09235 -99.27648 24956 ft 448 kts 155°
2026-04-14 23:11 30.06581 -99.25759 24964 ft 448 kts 155°
2026-04-14 23:12 30.03928 -99.23875 24972 ft 448 kts 155°
2026-04-14 23:12 30.01270 -99.21990 24975 ft 448 kts 155°
2026-04-14 23:12 29.98611 -99.20108 24983 ft 448 kts 155°
2026-04-14 23:12 29.95955 -99.18230 24985 ft 448 kts 155°
2026-04-14 23:13 29.93293 -99.16351 24986 ft 448 kts 155°
2026-04-14 23:13 29.90630 -99.14469 24985 ft 449 kts 155°
2026-04-14 23:13 29.87970 -99.12586 24983 ft 449 kts 155°
2026-04-14 23:13 29.85307 -99.10701 24975 ft 449 kts 155°
2026-04-14 23:14 29.82646 -99.08819 24972 ft 449 kts 155°
2026-04-14 23:14 29.79978 -99.06936 24965 ft 449 kts 155°
2026-04-14 23:14 29.77311 -99.05058 24958 ft 449 kts 155°
2026-04-14 23:14 29.74641 -99.03182 24954 ft 450 kts 155°
2026-04-14 23:15 29.71972 -99.01310 24945 ft 450 kts 155°
2026-04-14 23:15 29.69296 -98.99429 24938 ft 450 kts 155°
2026-04-14 23:15 29.66629 -98.97551 24930 ft 450 kts 155°
2026-04-14 23:15 29.63960 -98.95672 24929 ft 450 kts 155°
2026-04-14 23:16 29.61289 -98.93795 24929 ft 450 kts 155°
2026-04-14 23:16 29.58615 -98.91918 24932 ft 450 kts 155°
2026-04-14 23:16 29.55940 -98.90041 24932 ft 450 kts 155°
2026-04-14 23:16 29.53268 -98.88164 24936 ft 451 kts 154°
2026-04-14 23:17 29.50592 -98.86283 24941 ft 451 kts 154°
2026-04-14 23:17 29.47914 -98.84405 24942 ft 451 kts 155°
2026-04-14 23:17 29.45269 -98.82552 24942 ft 451 kts 154°
2026-04-14 23:18 29.39908 -98.78799 24953 ft 451 kts 154°
2026-04-14 23:18 29.37226 -98.76927 24941 ft 451 kts 154°
2026-04-14 23:18 29.34540 -98.75056 24946 ft 451 kts 154°
2026-04-14 23:18 29.31861 -98.73192 24950 ft 451 kts 154°
2026-04-14 23:19 29.29169 -98.71320 24938 ft 451 kts 154°
2026-04-14 23:19 29.26482 -98.69451 24916 ft 451 kts 154°
2026-04-14 23:19 29.23800 -98.67586 24919 ft 452 kts 154°
2026-04-14 23:19 29.21115 -98.65718 24922 ft 452 kts 154°
2026-04-14 23:20 29.18428 -98.63848 24913 ft 452 kts 154°
2026-04-14 23:20 29.15738 -98.61980 24925 ft 452 kts 154°
2026-04-14 23:20 29.13051 -98.60117 24940 ft 452 kts 154°
2026-04-14 23:20 29.10353 -98.58248 24947 ft 453 kts 154°
2026-04-14 23:21 29.07661 -98.56379 24956 ft 453 kts 154°
2026-04-14 23:21 29.04971 -98.54511 24969 ft 453 kts 154°
2026-04-14 23:21 29.02275 -98.52639 24965 ft 453 kts 154°
2026-04-14 23:21 28.99582 -98.50771 24966 ft 453 kts 154°
2026-04-14 23:22 28.96887 -98.48902 24969 ft 453 kts 154°
2026-04-14 23:22 28.94192 -98.47037 24969 ft 453 kts 154°
2026-04-14 23:22 28.91494 -98.45174 24973 ft 453 kts 154°
2026-04-14 23:22 28.88791 -98.43313 24931 ft 454 kts 154°
2026-04-14 23:23 28.86109 -98.41466 24643 ft 443 kts 154°
2026-04-14 23:23 28.83543 -98.39685 24506 ft 422 kts 154°
2026-04-14 23:23 28.81092 -98.37978 24360 ft 404 kts 154°
2026-04-14 23:23 28.78721 -98.36334 24009 ft 394 kts 154°
2026-04-14 23:24 28.76402 -98.34739 23776 ft 395 kts 154°
2026-04-14 23:24 28.74041 -98.33128 23548 ft 396 kts 154°
2026-04-14 23:24 28.71712 -98.31537 23298 ft 385 kts 154°
2026-04-14 23:24 28.69455 -98.29988 23027 ft 373 kts 154°
2026-04-14 23:25 28.67249 -98.28473 22760 ft 369 kts 154°
2026-04-14 23:25 28.65048 -98.26967 22500 ft 369 kts 154°
2026-04-14 23:25 28.62848 -98.25462 22246 ft 369 kts 154°
2026-04-14 23:25 28.60649 -98.23952 21991 ft 370 kts 154°
2026-04-14 23:26 28.58445 -98.22437 21600 ft 371 kts 153°
2026-04-14 23:26 28.56224 -98.20907 20895 ft 373 kts 152°
2026-04-14 23:26 28.54144 -98.19186 20458 ft 366 kts 144°
2026-04-14 23:26 28.52314 -98.17216 19475 ft 360 kts 138°
2026-04-14 23:27 28.50592 -98.15160 18488 ft 359 kts 137°
2026-04-14 23:27 28.48866 -98.13103 17548 ft 355 kts 137°
2026-04-14 23:27 28.47174 -98.11092 16701 ft 350 kts 137°
2026-04-14 23:27 28.45492 -98.09104 15911 ft 350 kts 137°
2026-04-14 23:28 28.43806 -98.07119 15454 ft 345 kts 137°
2026-04-14 23:28 28.42171 -98.05188 15200 ft 330 kts 137°
2026-04-14 23:28 28.40632 -98.03365 14645 ft 313 kts 136°
2026-04-14 23:28 28.39136 -98.01596 13866 ft 307 kts 135°
2026-04-14 23:29 28.37665 -97.99863 12993 ft 303 kts 135°
2026-04-14 23:29 28.36214 -97.98155 12150 ft 298 kts 136°
2026-04-14 23:29 28.34790 -97.96479 11399 ft 291 kts 136°
2026-04-14 23:29 28.33391 -97.94831 11162 ft 293 kts 136°
2026-04-14 23:30 28.31981 -97.93173 10929 ft 292 kts 137°
2026-04-14 23:30 28.30575 -97.91519 10695 ft 290 kts 136°
2026-04-14 23:30 28.29183 -97.89882 10470 ft 285 kts 137°
2026-04-14 23:30 28.27830 -97.88287 10230 ft 277 kts 137°
2026-04-14 23:31 28.26506 -97.86730 9996 ft 273 kts 137°
2026-04-14 23:31 28.25190 -97.85185 9858 ft 272 kts 136°
2026-04-14 23:31 28.23876 -97.83644 9743 ft 272 kts 137°
2026-04-14 23:31 28.22579 -97.82122 9599 ft 271 kts 137°
2026-04-14 23:32 28.21253 -97.80564 9476 ft 271 kts 137°
2026-04-14 23:32 28.19895 -97.79106 9350 ft 266 kts 149°
2026-04-14 23:32 28.18199 -97.78520 9221 ft 260 kts 181°
2026-04-14 23:32 28.16391 -97.78708 9104 ft 261 kts 186°
2026-04-14 23:33 28.14584 -97.78916 8962 ft 261 kts 185°
2026-04-14 23:33 28.12771 -97.79111 8677 ft 259 kts 185°
2026-04-14 23:33 28.11027 -97.79292 8348 ft 246 kts 184°
2026-04-14 23:33 28.09341 -97.79462 7785 ft 239 kts 184°
2026-04-14 23:34 28.07723 -97.79622 7379 ft 227 kts 184°
2026-04-14 23:34 28.06195 -97.79773 6950 ft 215 kts 184°
2026-04-14 23:34 28.04723 -97.79770 6348 ft 210 kts 171°
2026-04-14 23:34 28.03326 -97.79318 5764 ft 208 kts 157°
2026-04-14 23:35 28.02118 -97.78471 5433 ft 203 kts 143°
2026-04-14 23:35 28.01096 -97.77359 5028 ft 204 kts 138°
2026-04-14 23:35 28.00110 -97.76237 4728 ft 198 kts 138°
2026-04-14 23:35 27.99153 -97.75150 4481 ft 191 kts 137°
2026-04-14 23:36 27.98250 -97.74123 4350 ft 178 kts 137°
2026-04-14 23:36 27.97386 -97.73143 4248 ft 175 kts 137°
2026-04-14 23:36 27.96529 -97.72171 4160 ft 174 kts 138°
2026-04-14 23:36 27.95674 -97.71203 4084 ft 173 kts 138°
2026-04-14 23:37 27.94830 -97.70248 4007 ft 171 kts 138°
2026-04-14 23:37 27.93990 -97.69297 3932 ft 171 kts 138°
2026-04-14 23:37 27.93152 -97.68349 3870 ft 171 kts 138°
2026-04-14 23:37 27.92311 -97.67397 3775 ft 171 kts 138°
2026-04-14 23:38 27.91482 -97.66460 3647 ft 164 kts 138°
2026-04-14 23:38 27.90679 -97.65564 3449 ft 161 kts 138°
2026-04-14 23:38 27.89881 -97.64684 3238 ft 160 kts 139°
2026-04-14 23:38 27.89087 -97.63810 3037 ft 159 kts 139°
2026-04-14 23:39 27.88301 -97.62948 2828 ft 156 kts 137°
2026-04-14 23:39 27.87523 -97.62095 2629 ft 154 kts 138°
2026-04-14 23:39 27.86812 -97.61314 2436 ft 131 kts 138°
2026-04-14 23:39 27.86198 -97.60640 2274 ft 117 kts 138°
2026-04-14 23:40 27.85624 -97.60012 2126 ft 113 kts 138°
2026-04-14 23:40 27.85063 -97.59398 1980 ft 111 kts 137°
2026-04-14 23:40 27.84509 -97.58792 1842 ft 110 kts 137°
2026-04-14 23:40 27.83960 -97.58191 1703 ft 109 kts 137°
2026-04-14 23:41 27.83415 -97.57594 1561 ft 109 kts 138°
2026-04-14 23:41 27.82875 -97.57003 1414 ft 108 kts 138°
2026-04-14 23:41 27.82336 -97.56413 1273 ft 108 kts 137°
2026-04-14 23:41 27.81797 -97.55823 1133 ft 108 kts 137°
2026-04-14 23:42 27.81260 -97.55235 987 ft 108 kts 138°
2026-04-14 23:42 27.80709 -97.54633 838 ft 112 kts 139°
2026-04-14 23:42 27.80147 -97.54018 702 ft 114 kts 140°
2026-04-14 23:42 27.79576 -97.53393 557 ft 115 kts 139°
2026-04-14 23:43 27.78997 -97.52760 395 ft 116 kts 139°
2026-04-14 23:43 27.78421 -97.52121 271 ft 116 kts 137°
2026-04-14 23:43 27.77849 -97.51496 111 ft 114 kts 136°
2026-04-14 23:43 27.77301 -97.50903 50 ft 97 kts 136°
2026-04-14 23:44 27.76976 -97.50550 48 ft 37 kts 136°
2026-04-14 23:44 27.76837 -97.50401 46 ft 22 kts 135°
2026-04-14 23:44 27.76734 -97.50289 50 ft 19 kts 136°
2026-04-14 23:44 27.76644 -97.50189 51 ft 17 kts 135°
2026-04-14 23:45 27.76652 -97.50082 51 ft 17 kts 45°
2026-04-14 23:45 27.76717 -97.50004 52 ft 12 kts 53°
2026-04-14 23:45 27.76735 -97.49906 52 ft 14 kts 90°
2026-04-14 23:45 27.76770 -97.49808 53 ft 16 kts 18°
2026-04-14 23:46 27.76888 -97.49806 54 ft 18 kts 359°
2026-04-14 23:46 27.77023 -97.49812 52 ft 20 kts 359°
2026-04-14 23:46 27.77175 -97.49813 53 ft 23 kts
2026-04-14 23:46 27.77345 -97.49816 54 ft 24 kts 360°
2026-04-14 23:47 27.77495 -97.49820 54 ft 15 kts 347°
2026-04-14 23:47 27.77598 -97.49821 55 ft 16 kts
2026-04-14 23:47 27.77720 -97.49821 53 ft 17 kts 358°
2026-04-14 23:47 27.77759 -97.49908 54 ft 16 kts 254°
2026-04-14 23:48 27.77714 -97.49937 53 ft 6 kts 182°
2026-04-14 23:48 27.77697 -97.49937 52 ft 0 kts 180°
2026-04-14 23:49 27.77693 -97.49937 52 ft 2 kts 179°
2026-04-14 23:49 27.77661 -97.49936 52 ft 7 kts 178°
2026-04-14 23:49 27.77602 -97.49932 51 ft 8 kts 176°
2026-04-14 23:49 27.77555 -97.49940 52 ft 7 kts 218°
2026-04-14 23:50 27.77550 -97.49979 53 ft 1 kts 273°
2026-04-14 23:50 27.77551 -97.49985 53 ft 0 kts 272°